ROMMA est une association bénévole à but non lucratif. Votre soutien est indispensable : ADHERER à ROMMA ou FAIRE un DON

Saint-Laurent-du-Pont - (38, Isère)

Chartreuse (410 m)   Longitude: 05° 43' 24" E   Latitude: 45° 23' 14" N Station partenaire n°156
 

Détail journalier du     <<     >>

Température Precipitation Humidité Pression Vent Dir Rafale Dir. rafale
Heure (°C) (mm) (%) (hPa) (km/h) (km/h)
01:00 2.709710171SSE5O
02:00 3.0098101703S
03:00 3.309810171E3S
04:00 2.409710162NE6SSE
05:00 2.009810171E3E
06:00 2.909810162NE8S
07:00 2.809710162NE6NE
08:00 2.809810161SO5SO
09:00 3.809710162NE10O
10:00 4.709410152SO5SO
11:00 6.108810152N8OSO
12:00 7.108610142N6O
13:00 7.608510132O5NNO
14:00 8.208310122OSO8SSO
15:00 7.908410122ONO8NO
16:00 7.908410122N5N
17:00 7.408510121N6ENE
18:00 5.309110122ESE5ESE
19:00 3.309410122ESE5ESE
20:00 1.909510122ESE5ESE
21:00 2.109710132ESE5ESE
22:00 2.8097101405ENE
23:00 3.20.69710151NE5ENE
minuit 3.61.49710151ESE6OSO

Graphique du 11-11-2019

 

Serveur OMMA